Time,TemperatureF,DewpointF,PressureIn,WindDirection,WindDirectionDegrees,WindSpeedMPH,WindSpeedGustMPH,Humidity,HourlyPrecipIn,Conditions,Clouds,dailyrainin,SoftwareType,DateUTC
2016-09-27 00:04:00,82.0,33.0,-100.00,NE,38,2.0,6.0,17,-99.99,,,-99.99,,2016-09-27 07:04:00,
2016-09-27 00:23:00,81.0,33.0,-100.00,NNE,20,3.0,6.0,18,-99.99,,,-99.99,,2016-09-27 07:23:00,
2016-09-27 00:34:00,82.0,34.0,-100.00,NNE,31,5.0,6.0,18,-99.99,,,-99.99,,2016-09-27 07:34:00,
2016-09-27 00:44:00,83.0,34.0,-100.00,NE,44,4.0,6.0,17,-99.99,,,-99.99,,2016-09-27 07:44:00,
2016-09-27 00:54:00,80.0,35.0,-100.00,WNW,284,1.0,5.0,20,-99.99,,,-99.99,,2016-09-27 07:54:00,
2016-09-27 01:03:00,80.0,37.0,-100.00,North,356,1.0,3.0,21,-99.99,,,-99.99,,2016-09-27 08:03:00,
2016-09-27 01:12:00,83.0,36.0,-100.00,ENE,59,2.0,3.0,19,-99.99,,,-99.99,,2016-09-27 08:12:00,
2016-09-27 01:25:00,81.0,36.0,-100.00,WSW,255,1.0,-999.0,20,-99.99,,,-99.99,,2016-09-27 08:25:00,
2016-09-27 01:33:00,79.0,37.0,-100.00,SE,145,1.0,3.0,22,-99.99,,,-99.99,,2016-09-27 08:33:00,
2016-09-27 01:46:00,77.0,37.0,-100.00,SSW,210,1.0,3.0,24,-99.99,,,-99.99,,2016-09-27 08:46:00,
2016-09-27 01:53:00,77.0,38.0,-100.00,North,4,3.0,6.0,25,-99.99,,,-99.99,,2016-09-27 08:53:00,
2016-09-27 02:03:00,80.0,39.0,-100.00,North,8,3.0,5.0,23,-99.99,,,-99.99,,2016-09-27 09:03:00,
2016-09-27 02:13:00,78.0,39.0,-100.00,SSW,200,1.0,3.0,25,-99.99,,,-99.99,,2016-09-27 09:13:00,
2016-09-27 02:23:00,75.0,39.0,-100.00,North,-9999,0.0,2.0,27,-99.99,,,-99.99,,2016-09-27 09:23:00,
2016-09-27 02:46:00,76.0,39.0,-100.00,North,-9999,0.0,2.0,26,-99.99,,,-99.99,,2016-09-27 09:46:00,
2016-09-27 02:54:00,76.0,39.0,-100.00,North,-9999,0.0,1.0,26,-99.99,,,-99.99,,2016-09-27 09:54:00,
2016-09-27 03:04:00,74.0,39.0,-100.00,North,-9999,0.0,1.0,28,-99.99,,,-99.99,,2016-09-27 10:04:00,
2016-09-27 03:15:00,74.0,39.0,-100.00,North,-9999,0.0,2.0,28,-99.99,,,-99.99,,2016-09-27 10:15:00,
2016-09-27 04:15:00,76.0,39.0,-100.00,NNE,18,6.0,10.0,26,-99.99,,,-99.99,,2016-09-27 11:15:00,
2016-09-27 04:24:00,78.0,39.0,-100.00,North,355,3.0,8.0,25,-99.99,,,-99.99,,2016-09-27 11:24:00,
2016-09-27 04:44:00,74.0,41.0,-100.00,SW,225,3.0,6.0,30,-99.99,,,-99.99,,2016-09-27 11:44:00,
2016-09-27 04:54:00,73.0,41.0,-100.00,WSW,248,1.0,3.0,31,-99.99,,,-99.99,,2016-09-27 11:54:00,
2016-09-27 05:04:00,74.0,40.0,-100.00,NNE,15,3.0,4.0,29,-99.99,,,-99.99,,2016-09-27 12:04:00,
2016-09-27 05:13:00,76.0,40.0,-100.00,NE,35,4.0,5.0,27,-99.99,,,-99.99,,2016-09-27 12:13:00,
2016-09-27 05:23:00,77.0,39.0,-100.00,NNE,26,4.0,6.0,26,-99.99,,,-99.99,,2016-09-27 12:23:00,
2016-09-27 05:44:00,77.0,39.0,-100.00,NE,41,7.0,8.0,26,-99.99,,,-99.99,,2016-09-27 12:44:00,
2016-09-27 05:54:00,77.0,40.0,-100.00,NE,34,7.0,8.0,27,-99.99,,,-99.99,,2016-09-27 12:54:00,
2016-09-27 06:04:00,79.0,42.0,-100.00,NNE,31,7.0,8.0,27,-99.99,,,-99.99,,2016-09-27 13:04:00,
2016-09-27 06:13:00,79.0,42.0,-100.00,NE,39,7.0,9.0,27,-99.99,,,-99.99,,2016-09-27 13:13:00,
2016-09-27 06:24:00,79.0,41.0,-100.00,NE,35,6.0,10.0,26,-99.99,,,-99.99,,2016-09-27 13:24:00,
2016-09-27 06:34:00,78.0,41.0,-100.00,NNE,30,8.0,10.0,27,-99.99,,,-99.99,,2016-09-27 13:34:00,
2016-09-27 07:03:00,78.0,41.0,-100.00,NNE,32,6.0,8.0,27,-99.99,,,-99.99,,2016-09-27 14:03:00,
2016-09-27 07:13:00,77.0,40.0,-100.00,NE,42,3.0,5.0,27,-99.99,,,-99.99,,2016-09-27 14:13:00,
2016-09-27 07:23:00,77.0,41.0,-100.00,NNE,27,5.0,-999.0,28,-99.99,,,-99.99,,2016-09-27 14:23:00,
2016-09-27 07:34:00,78.0,41.0,-100.00,NE,50,3.0,7.0,27,-99.99,,,-99.99,,2016-09-27 14:34:00,
2016-09-27 07:43:00,76.0,42.0,-100.00,NNW,337,1.0,3.0,30,-99.99,,,-99.99,,2016-09-27 14:43:00,
2016-09-27 08:03:00,75.0,42.0,-100.00,NNE,25,4.0,6.0,31,-99.99,,,-99.99,,2016-09-27 15:03:00,
2016-09-27 08:13:00,76.0,42.0,-100.00,North,5,5.0,7.0,30,-99.99,,,-99.99,,2016-09-27 15:13:00,
2016-09-27 08:23:00,76.0,42.0,-100.00,North,-9999,0.0,-999.0,30,-99.99,,,-99.99,,2016-09-27 15:23:00,
2016-09-27 09:05:00,79.0,42.0,-100.00,NNE,22,3.0,5.0,27,-99.99,,,-99.99,,2016-09-27 16:05:00,
2016-09-27 09:37:00,83.0,44.0,-100.00,ENE,57,3.0,4.0,25,-99.99,,,-99.99,,2016-09-27 16:37:00,
2016-09-27 10:04:00,86.0,44.0,-100.00,North,11,4.0,6.0,23,-99.99,,,-99.99,,2016-09-27 17:04:00,
2016-09-27 10:14:00,86.0,44.0,-100.00,NNE,24,5.0,8.0,23,-99.99,,,-99.99,,2016-09-27 17:14:00,
2016-09-27 10:24:00,86.0,44.0,-100.00,North,3,3.0,8.0,23,-99.99,,,-99.99,,2016-09-27 17:24:00,
2016-09-27 10:58:00,86.0,46.0,-100.00,West,276,1.0,-999.0,25,-99.99,,,-99.99,,2016-09-27 17:58:00,
2016-09-27 11:04:00,87.0,44.0,-100.00,WNW,291,1.0,4.0,22,-99.99,,,-99.99,,2016-09-27 18:04:00,
2016-09-27 11:13:00,86.0,45.0,-100.00,SSW,211,4.0,-999.0,24,-99.99,,,-99.99,,2016-09-27 18:13:00,
2016-09-27 11:25:00,86.0,45.0,-100.00,South,178,1.0,4.0,24,-99.99,,,-99.99,,2016-09-27 18:25:00,
2016-09-27 11:33:00,88.0,44.0,-100.00,South,170,1.0,3.0,22,-99.99,,,-99.99,,2016-09-27 18:33:00,
2016-09-27 11:57:00,88.0,43.0,-100.00,SSE,165,5.0,8.0,21,-99.99,,,-99.99,,2016-09-27 18:57:00,
2016-09-27 12:04:00,88.0,43.0,-100.00,SSE,167,5.0,11.0,21,-99.99,,,-99.99,,2016-09-27 19:04:00,
2016-09-27 12:13:00,88.0,42.0,-100.00,SE,146,4.0,7.0,20,-99.99,,,-99.99,,2016-09-27 19:13:00,
2016-09-27 12:23:00,89.0,43.0,-100.00,SSE,152,5.0,9.0,20,-99.99,,,-99.99,,2016-09-27 19:23:00,
2016-09-27 12:44:00,88.0,43.0,-100.00,South,173,6.0,10.0,21,-99.99,,,-99.99,,2016-09-27 19:44:00,
2016-09-27 13:03:00,89.0,43.0,-100.00,SE,144,4.0,7.0,20,-99.99,,,-99.99,,2016-09-27 20:03:00,
2016-09-27 13:12:00,89.0,43.0,-100.00,SSE,158,4.0,9.0,20,-99.99,,,-99.99,,2016-09-27 20:12:00,
2016-09-27 13:23:00,89.0,43.0,-100.00,SSE,159,5.0,10.0,20,-99.99,,,-99.99,,2016-09-27 20:23:00,
2016-09-27 13:34:00,89.0,43.0,-100.00,SE,127,8.0,15.0,20,-99.99,,,-99.99,,2016-09-27 20:34:00,
2016-09-27 13:43:00,88.0,42.0,-100.00,SE,133,9.0,15.0,20,-99.99,,,-99.99,,2016-09-27 20:43:00,
2016-09-27 14:03:00,88.0,43.0,-100.00,SE,125,8.0,14.0,21,-99.99,,,-99.99,,2016-09-27 21:03:00,
2016-09-27 14:23:00,88.0,43.0,-100.00,SE,129,5.0,11.0,21,-99.99,,,-99.99,,2016-09-27 21:23:00,
2016-09-27 14:57:00,89.0,43.0,-100.00,SE,124,8.0,17.0,20,-99.99,,,-99.99,,2016-09-27 21:57:00,
2016-09-27 15:23:00,89.0,43.0,-100.00,ESE,121,6.0,-999.0,20,-99.99,,,-99.99,,2016-09-27 22:23:00,
2016-09-27 15:44:00,89.0,43.0,-100.00,ESE,118,7.0,12.0,20,-99.99,,,-99.99,,2016-09-27 22:44:00,
2016-09-27 16:04:00,89.0,43.0,-100.00,SE,130,5.0,8.0,20,-99.99,,,-99.99,,2016-09-27 23:04:00,
2016-09-27 16:12:00,88.0,42.0,-100.00,East,98,6.0,-999.0,20,-99.99,,,-99.99,,2016-09-27 23:12:00,
2016-09-27 16:34:00,88.0,43.0,-100.00,ESE,119,7.0,-999.0,21,-99.99,,,-99.99,,2016-09-27 23:34:00,
2016-09-27 16:44:00,87.0,42.0,-100.00,SE,128,9.0,16.0,21,-99.99,,,-99.99,,2016-09-27 23:44:00,
2016-09-27 16:54:00,87.0,44.0,-100.00,SE,124,8.0,15.0,22,-99.99,,,-99.99,,2016-09-27 23:54:00,
2016-09-27 17:04:00,87.0,44.0,-100.00,SE,127,7.0,15.0,22,-99.99,,,-99.99,,2016-09-28 00:04:00,
2016-09-27 17:13:00,87.0,44.0,-100.00,ESE,118,7.0,13.0,22,-99.99,,,-99.99,,2016-09-28 00:13:00,
2016-09-27 17:34:00,87.0,44.0,-100.00,SE,127,6.0,-999.0,22,-99.99,,,-99.99,,2016-09-28 00:34:00,
2016-09-27 17:49:00,87.0,44.0,-100.00,ESE,123,5.0,11.0,22,-99.99,,,-99.99,,2016-09-28 00:49:00,
2016-09-27 18:05:00,87.0,44.0,-100.00,ESE,122,4.0,9.0,22,-99.99,,,-99.99,,2016-09-28 01:05:00,
2016-09-27 18:12:00,86.0,45.0,-100.00,SW,215,5.0,11.0,24,-99.99,,,-99.99,,2016-09-28 01:12:00,
2016-09-27 18:24:00,82.0,49.0,-100.00,West,262,5.0,10.0,32,-99.99,,,-99.99,,2016-09-28 01:24:00,
2016-09-27 18:29:00,81.0,50.0,-100.00,WNW,289,3.0,7.0,34,-99.99,,,-99.99,,2016-09-28 01:29:00,
2016-09-27 18:35:00,79.0,48.0,-100.00,WSW,255,5.0,8.0,34,-99.99,,,-99.99,,2016-09-28 01:35:00,
2016-09-27 18:44:00,80.0,49.0,-100.00,West,263,5.0,9.0,34,-99.99,,,-99.99,,2016-09-28 01:44:00,
2016-09-27 18:55:00,79.0,48.0,-100.00,West,281,2.0,5.0,34,-99.99,,,-99.99,,2016-09-28 01:55:00,
2016-09-27 19:05:00,79.0,48.0,-100.00,WNW,303,3.0,5.0,34,-99.99,,,-99.99,,2016-09-28 02:05:00,